| time (UTC) | temp F | wind direction | speed MPH | gust MPH | rain 1hr in | rain 24hr in | rain mn in | humidity % | barometer mb |
| 20260507132558 | 65 | 0 | 0.0 | 1.0 | 0.00 | 0.00 | 0.00 | 37 | 1014.3 |
| 20260507132058 | 64 | 0 | 0.0 | 2.0 | 0.00 | 0.00 | 0.00 | 38 | 1014.3 |
| 20260507131602 | 64 | 247 | 1.0 | 2.0 | 0.00 | 0.00 | 0.00 | 38 | 1014.2 |
| 20260507131058 | 64 | 212 | 0.0 | 1.0 | 0.00 | 0.00 | 0.00 | 38 | 1014.1 |
| 20260507130558 | 64 | 255 | 0.0 | 0.0 | 0.00 | 0.00 | 0.00 | 37 | 1014.1 |
| 20260507130110 | 65 | 0 | 0.0 | 0.0 | 0.00 | 0.00 | 0.00 | 35 | 1014.1 |
| 20260507125558 | 66 | 0 | 0.0 | 2.0 | 0.00 | 0.00 | 0.00 | 35 | 1014.1 |
| 20260507125100 | 66 | 0 | 0.0 | 5.0 | 0.00 | 0.00 | 0.00 | 35 | 1013.9 |
| 20260507124558 | 66 | 314 | 1.0 | 5.0 | 0.00 | 0.00 | 0.00 | 35 | 1013.9 |
| 20260507124058 | 65 | 254 | 0.0 | 2.0 | 0.00 | 0.00 | 0.00 | 35 | 1013.8 |
| 20260507123600 | 65 | 0 | 0.0 | 2.0 | 0.00 | 0.00 | 0.00 | 35 | 1013.9 |
| 20260507123100 | 66 | 0 | 0.0 | 4.0 | 0.00 | 0.00 | 0.00 | 35 | 1013.8 |
| 20260507122558 | 68 | 301 | 1.0 | 4.0 | 0.00 | 0.00 | 0.00 | 34 | 1013.9 |
| 20260507122058 | 68 | 3 | 1.0 | 3.0 | 0.00 | 0.00 | 0.00 | 33 | 1013.9 |
| 20260507121606 | 68 | 351 | 0.0 | 4.0 | 0.00 | 0.00 | 0.00 | 33 | 1013.9 |
| 20260507121058 | 69 | 68 | 2.0 | 7.0 | 0.00 | 0.00 | 0.00 | 32 | 1013.9 |
| 20260507120604 | 69 | 118 | 1.0 | 7.0 | 0.00 | 0.00 | 0.00 | 32 | 1013.9 |
| 20260507115558 | 70 | 49 | 1.0 | 8.0 | 0.00 | 0.00 | 0.00 | 32 | 1013.9 |
| 20260507115058 | 70 | 18 | 2.0 | 8.0 | 0.00 | 0.00 | 0.00 | 32 | 1014.0 |
| 20260507114613 | 70 | 68 | 3.0 | 8.0 | 0.00 | 0.00 | 0.00 | 32 | 1014.1 |
| 20260507114100 | 70 | 44 | 4.0 | 8.0 | 0.00 | 0.00 | 0.00 | 32 | 1014.1 |
| 20260507113558 | 70 | 51 | 2.0 | 6.0 | 0.00 | 0.00 | 0.00 | 32 | 1014.2 |
| 20260507113100 | 69 | 68 | 3.0 | 6.0 | 0.00 | 0.00 | 0.00 | 32 | 1014.2 |
| 20260507112602 | 69 | 289 | 2.0 | 6.0 | 0.00 | 0.00 | 0.00 | 33 | 1014.3 |
| 20260507112101 | 68 | 314 | 0.0 | 7.0 | 0.00 | 0.00 | 0.00 | 33 | 1014.3 |
| 20260507111606 | 69 | 315 | 2.0 | 8.0 | 0.00 | 0.00 | 0.00 | 32 | 1014.3 |
| 20260507111058 | 69 | 342 | 2.0 | 8.0 | 0.00 | 0.00 | 0.00 | 34 | 1014.3 |
| 20260507110559 | 68 | 330 | 1.0 | 4.0 | 0.00 | 0.00 | 0.00 | 34 | 1014.4 |
| 20260507110111 | 68 | 319 | 1.0 | 3.0 | 0.00 | 0.00 | 0.00 | 33 | 1014.4 |
| 20260507105558 | 67 | 352 | 1.0 | 3.0 | 0.00 | 0.00 | 0.00 | 33 | 1014.5 |
| 20260507105058 | 67 | 303 | 1.0 | 3.0 | 0.00 | 0.00 | 0.00 | 34 | 1014.4 |
| 20260507104558 | 67 | 316 | 0.0 | 3.0 | 0.00 | 0.00 | 0.00 | 34 | 1014.5 |
| 20260507104057 | 67 | 295 | 0.0 | 4.0 | 0.00 | 0.00 | 0.00 | 34 | 1014.5 |
| 20260507103557 | 67 | 348 | 2.0 | 4.0 | 0.00 | 0.00 | 0.00 | 34 | 1014.5 |
| 20260507103058 | 67 | 309 | 1.0 | 3.0 | 0.00 | 0.00 | 0.00 | 34 | 1014.5 |
| 20260507102558 | 66 | 335 | 0.0 | 1.0 | 0.00 | 0.00 | 0.00 | 35 | 1014.6 |
| 20260507102058 | 65 | 0 | 0.0 | 1.0 | 0.00 | 0.00 | 0.00 | 35 | 1014.6 |
| 20260507101605 | 65 | 335 | 0.0 | 1.0 | 0.00 | 0.00 | 0.00 | 36 | 1014.6 |
| 20260507101058 | 64 | 0 | 0.0 | 1.0 | 0.00 | 0.00 | 0.00 | 36 | 1014.6 |
| 20260507100557 | 64 | 0 | 0.0 | 1.0 | 0.00 | 0.00 | 0.00 | 35 | 1014.6 |
| 20260507100057 | 64 | 1 | 0.0 | 2.0 | 0.00 | 0.00 | 0.00 | 35 | 1014.6 |
| 20260507095558 | 65 | 0 | 0.0 | 2.0 | 0.00 | 0.00 | 0.00 | 35 | 1014.6 |
| 20260507095101 | 65 | 1 | 0.0 | 1.0 | 0.00 | 0.00 | 0.00 | 34 | 1014.6 |
| 20260507094558 | 65 | 0 | 0.0 | 2.0 | 0.00 | 0.00 | 0.00 | 34 | 1014.6 |
| 20260507094058 | 66 | 297 | 0.0 | 4.0 | 0.00 | 0.00 | 0.00 | 33 | 1014.6 |
| 20260507093558 | 66 | 323 | 1.0 | 4.0 | 0.00 | 0.00 | 0.00 | 33 | 1014.6 |
| 20260507093059 | 66 | 349 | 1.0 | 3.0 | 0.00 | 0.00 | 0.00 | 33 | 1014.6 |
| 20260507092601 | 66 | 359 | 2.0 | 3.0 | 0.00 | 0.00 | 0.00 | 33 | 1014.6 |
| 20260507092059 | 66 | 0 | 1.0 | 2.0 | 0.00 | 0.00 | 0.00 | 33 | 1014.6 |
| 20260507091601 | 66 | 323 | 1.0 | 2.0 | 0.00 | 0.00 | 0.00 | 32 | 1014.6 |
| 20260507091058 | 67 | 315 | 0.0 | 3.0 | 0.00 | 0.00 | 0.00 | 32 | 1014.6 |
| 20260507090557 | 67 | 315 | 1.0 | 4.0 | 0.00 | 0.00 | 0.00 | 32 | 1014.7 |
| 20260507090104 | 68 | 324 | 2.0 | 4.0 | 0.00 | 0.00 | 0.00 | 31 | 1014.7 |
| 20260507085557 | 68 | 325 | 2.0 | 4.0 | 0.00 | 0.00 | 0.00 | 31 | 1014.7 |
| 20260507085058 | 68 | 339 | 2.0 | 4.0 | 0.00 | 0.00 | 0.00 | 31 | 1014.8 |
| 20260507084559 | 68 | 323 | 1.0 | 3.0 | 0.00 | 0.00 | 0.00 | 31 | 1014.7 |
| 20260507084103 | 68 | 276 | 1.0 | 4.0 | 0.00 | 0.00 | 0.00 | 32 | 1014.7 |
| 20260507083558 | 68 | 314 | 1.0 | 5.0 | 0.00 | 0.00 | 0.00 | 31 | 1014.9 |
| 20260507083059 | 67 | 330 | 2.0 | 5.0 | 0.00 | 0.00 | 0.00 | 31 | 1014.9 |
| 20260507082558 | 67 | 307 | 2.0 | 6.0 | 0.00 | 0.00 | 0.00 | 32 | 1014.9 |
| 20260507082100 | 67 | 319 | 2.0 | 6.0 | 0.00 | 0.00 | 0.00 | 31 | 1015.0 |
| 20260507081604 | 67 | 338 | 2.0 | 5.0 | 0.00 | 0.00 | 0.00 | 32 | 1014.9 |
| 20260507081100 | 67 | 326 | 1.0 | 2.0 | 0.00 | 0.00 | 0.00 | 31 | 1014.9 |
| 20260507080559 | 67 | 309 | 0.0 | 2.0 | 0.00 | 0.00 | 0.00 | 31 | 1014.9 |
| 20260507075558 | 67 | 295 | 1.0 | 3.0 | 0.00 | 0.00 | 0.00 | 31 | 1014.9 |
| 20260507075100 | 67 | 328 | 1.0 | 3.0 | 0.00 | 0.00 | 0.00 | 31 | 1015.0 |
| 20260507074611 | 67 | 328 | 2.0 | 3.0 | 0.00 | 0.00 | 0.00 | 31 | 1015.0 |
| 20260507074059 | 67 | 325 | 2.0 | 3.0 | 0.00 | 0.00 | 0.00 | 31 | 1015.0 |
| 20260507073559 | 68 | 332 | 2.0 | 3.0 | 0.00 | 0.00 | 0.00 | 31 | 1015.1 |
| 20260507073059 | 68 | 335 | 2.0 | 3.0 | 0.00 | 0.00 | 0.00 | 30 | 1015.1 |
| 20260507072600 | 68 | 342 | 2.0 | 3.0 | 0.00 | 0.00 | 0.00 | 30 | 1015.1 |
| 20260507072103 | 68 | 330 | 2.0 | 4.0 | 0.00 | 0.00 | 0.00 | 30 | 1015.0 |
| 20260507071559 | 68 | 323 | 2.0 | 4.0 | 0.00 | 0.00 | 0.00 | 30 | 1014.9 |
| 20260507071059 | 68 | 323 | 2.0 | 4.0 | 0.00 | 0.00 | 0.00 | 30 | 1015.0 |
| 20260507070559 | 68 | 302 | 3.0 | 6.0 | 0.00 | 0.00 | 0.00 | 30 | 1015.0 |
| 20260507070100 | 68 | 330 | 3.0 | 6.0 | 0.00 | 0.00 | 0.00 | 30 | 1015.0 |
| 20260507065603 | 68 | 340 | 3.0 | 5.0 | 0.00 | 0.00 | 0.00 | 30 | 1015.0 |
| 20260507065059 | 68 | 337 | 3.0 | 4.0 | 0.00 | 0.00 | 0.00 | 30 | 1015.0 |
| 20260507064558 | 68 | 332 | 2.0 | 3.0 | 0.00 | 0.00 | 0.00 | 32 | 1015.0 |
| 20260507064100 | 68 | 338 | 0.0 | 0.0 | 0.00 | 0.00 | 0.00 | 32 | 1015.0 |
| 20260507063559 | 68 | 0 | 0.0 | 0.0 | 0.00 | 0.00 | 0.00 | 33 | 1015.0 |
| 20260507063059 | 68 | 0 | 0.0 | 0.0 | 0.00 | 0.00 | 0.00 | 33 | 1014.9 |
| 20260507062559 | 68 | 0 | 0.0 | 0.0 | 0.00 | 0.00 | 0.00 | 32 | 1014.9 |
| 20260507062100 | 68 | 0 | 0.0 | 2.0 | 0.00 | 0.00 | 0.00 | 32 | 1014.9 |
| 20260507061607 | 69 | 0 | 0.0 | 2.0 | 0.00 | 0.00 | 0.00 | 32 | 1015.0 |
| 20260507061100 | 69 | 0 | 1.0 | 2.0 | 0.00 | 0.00 | 0.00 | 31 | 1014.9 |
| 20260507060559 | 69 | 0 | 0.0 | 1.0 | 0.00 | 0.00 | 0.00 | 32 | 1014.9 |
| 20260507060059 | 69 | 0 | 0.0 | 1.0 | 0.00 | 0.00 | 0.00 | 32 | 1014.8 |
| 20260507055559 | 69 | 0 | 0.0 | 1.0 | 0.00 | 0.00 | 0.00 | 33 | 1014.9 |
| 20260507055059 | 69 | 0 | 0.0 | 1.0 | 0.00 | 0.00 | 0.00 | 31 | 1015.0 |
| 20260507054639 | 70 | 0 | 0.0 | 1.0 | 0.00 | 0.00 | 0.00 | 32 | 1014.9 |
| 20260507054059 | 70 | 0 | 0.0 | 0.0 | 0.00 | 0.00 | 0.00 | 31 | 1014.9 |
| 20260507053600 | 70 | 0 | 0.0 | 0.0 | 0.00 | 0.00 | 0.00 | 32 | 1015.0 |
| 20260507053100 | 70 | 0 | 0.0 | 1.0 | 0.00 | 0.00 | 0.00 | 32 | 1015.0 |
| 20260507052600 | 70 | 0 | 0.0 | 1.0 | 0.00 | 0.00 | 0.00 | 31 | 1015.0 |
| 20260507052100 | 70 | 0 | 0.0 | 1.0 | 0.00 | 0.00 | 0.00 | 31 | 1015.0 |
| 20260507051559 | 70 | 51 | 0.0 | 1.0 | 0.00 | 0.00 | 0.00 | 30 | 1015.0 |
| 20260507051059 | 71 | 0 | 0.0 | 1.0 | 0.00 | 0.00 | 0.00 | 30 | 1014.9 |
| 20260507050559 | 71 | 139 | 0.0 | 1.0 | 0.00 | 0.00 | 0.00 | 31 | 1014.7 |
| 20260507050100 | 71 | 0 | 0.0 | 1.0 | 0.00 | 0.00 | 0.00 | 31 | 1014.7 |
| 20260507045600 | 71 | 0 | 0.0 | 1.0 | 0.00 | 0.00 | 0.00 | 31 | 1014.7 |
| 20260507045059 | 71 | 0 | 0.0 | 1.0 | 0.00 | 0.00 | 0.00 | 31 | 1014.6 |
| 20260507044602 | 71 | 139 | 0.0 | 1.0 | 0.00 | 0.00 | 0.00 | 31 | 1014.5 |
| 20260507044059 | 71 | 0 | 0.0 | 0.0 | 0.00 | 0.00 | 0.00 | 31 | 1014.6 |
| 20260507043558 | 72 | 0 | 0.0 | 1.0 | 0.00 | 0.00 | 0.00 | 30 | 1014.6 |
| 20260507043057 | 72 | 0 | 0.0 | 1.0 | 0.00 | 0.00 | 0.00 | 31 | 1014.5 |
| 20260507042558 | 71 | 0 | 0.0 | 1.0 | 0.00 | 0.00 | 0.00 | 30 | 1014.5 |
| 20260507042058 | 72 | 0 | 0.0 | 0.0 | 0.00 | 0.00 | 0.00 | 30 | 1014.5 |
| 20260507041604 | 73 | 0 | 0.0 | 1.0 | 0.00 | 0.00 | 0.00 | 31 | 1014.4 |
| 20260507041058 | 74 | 0 | 0.0 | 1.0 | 0.00 | 0.00 | 0.00 | 29 | 1014.3 |
| 20260507040558 | 74 | 0 | 0.0 | 1.0 | 0.00 | 0.00 | 0.00 | 29 | 1014.2 |
| 20260507040058 | 74 | 0 | 0.0 | 1.0 | 0.00 | 0.00 | 0.00 | 28 | 1014.1 |
| 20260507035557 | 75 | 0 | 0.0 | 1.0 | 0.00 | 0.00 | 0.00 | 28 | 1014.1 |
| 20260507035058 | 75 | 0 | 0.0 | 1.0 | 0.00 | 0.00 | 0.00 | 28 | 1013.9 |
| 20260507034601 | 75 | 0 | 0.0 | 1.0 | 0.00 | 0.00 | 0.00 | 28 | 1013.9 |
| 20260507034058 | 76 | 0 | 0.0 | 2.0 | 0.00 | 0.00 | 0.00 | 27 | 1013.9 |
| 20260507033558 | 76 | 139 | 0.0 | 2.0 | 0.00 | 0.00 | 0.00 | 27 | 1013.8 |
| 20260507033105 | 76 | 0 | 0.0 | 2.0 | 0.00 | 0.00 | 0.00 | 27 | 1013.8 |
| 20260507032559 | 76 | 0 | 0.0 | 3.0 | 0.00 | 0.00 | 0.00 | 27 | 1013.7 |
| 20260507032058 | 77 | 180 | 2.0 | 3.0 | 0.00 | 0.00 | 0.00 | 26 | 1013.6 |
| 20260507031608 | 77 | 161 | 1.0 | 3.0 | 0.00 | 0.00 | 0.00 | 26 | 1013.6 |
| 20260507031059 | 77 | 169 | 1.0 | 4.0 | 0.00 | 0.00 | 0.00 | 25 | 1013.6 |
| 20260507030558 | 78 | 173 | 2.0 | 5.0 | 0.00 | 0.00 | 0.00 | 25 | 1013.5 |
| 20260507030059 | 78 | 174 | 3.0 | 6.0 | 0.00 | 0.00 | 0.00 | 25 | 1013.4 |
| 20260507025601 | 78 | 193 | 3.0 | 6.0 | 0.00 | 0.00 | 0.00 | 25 | 1013.3 |
| 20260507025058 | 78 | 215 | 3.0 | 6.0 | 0.00 | 0.00 | 0.00 | 25 | 1013.2 |
| 20260507024600 | 79 | 268 | 3.0 | 8.0 | 0.00 | 0.00 | 0.00 | 25 | 1013.2 |
| 20260507024058 | 79 | 174 | 4.0 | 8.0 | 0.00 | 0.00 | 0.00 | 25 | 1013.1 |
| 20260507023558 | 79 | 233 | 3.0 | 8.0 | 0.00 | 0.00 | 0.00 | 25 | 1013.1 |
| 20260507023106 | 79 | 253 | 3.0 | 8.0 | 0.00 | 0.00 | 0.00 | 24 | 1013.1 |
| 20260507022559 | 80 | 240 | 4.0 | 8.0 | 0.00 | 0.00 | 0.00 | 24 | 1013.0 |
| 20260507022058 | 80 | 226 | 3.0 | 7.0 | 0.00 | 0.00 | 0.00 | 24 | 1013.0 |
| 20260507021602 | 80 | 234 | 3.0 | 7.0 | 0.00 | 0.00 | 0.00 | 24 | 1012.9 |
| 20260507021101 | 80 | 232 | 2.0 | 7.0 | 0.00 | 0.00 | 0.00 | 24 | 1012.9 |
| 20260507020559 | 80 | 134 | 3.0 | 7.0 | 0.00 | 0.00 | 0.00 | 25 | 1012.8 |
| 20260507020101 | 81 | 146 | 3.0 | 9.0 | 0.00 | 0.00 | 0.00 | 25 | 1012.8 |
| 20260507015558 | 81 | 162 | 4.0 | 9.0 | 0.00 | 0.00 | 0.00 | 24 | 1012.9 |
| 20260507015058 | 81 | 111 | 3.0 | 7.0 | 0.00 | 0.00 | 0.00 | 24 | 1012.8 |
| 20260507014605 | 81 | 155 | 4.0 | 7.0 | 0.00 | 0.00 | 0.00 | 24 | 1012.8 |
| 20260507014058 | 82 | 136 | 3.0 | 8.0 | 0.00 | 0.00 | 0.00 | 24 | 1012.8 |
| 20260507013558 | 82 | 136 | 5.0 | 10.0 | 0.00 | 0.00 | 0.00 | 24 | 1012.8 |
| 20260507013058 | 82 | 135 | 4.0 | 10.0 | 0.00 | 0.00 | 0.00 | 24 | 1012.8 |
| 20260507012558 | 82 | 121 | 5.0 | 9.0 | 0.00 | 0.00 | 0.00 | 24 | 1012.7 |
| 20260507012100 | 82 | 99 | 5.0 | 9.0 | 0.00 | 0.00 | 0.00 | 25 | 1012.7 |
| 20260507011559 | 82 | 121 | 5.0 | 9.0 | 0.00 | 0.00 | 0.00 | 24 | 1012.7 |
| 20260507011100 | 83 | 140 | 3.0 | 9.0 | 0.00 | 0.00 | 0.00 | 24 | 1012.7 |
| 20260507010558 | 82 | 114 | 6.0 | 9.0 | 0.00 | 0.00 | 0.00 | 24 | 1012.8 |
| 20260507010105 | 83 | 121 | 4.0 | 9.0 | 0.00 | 0.00 | 0.00 | 24 | 1012.8 |
| 20260507005559 | 83 | 150 | 5.0 | 8.0 | 0.00 | 0.00 | 0.00 | 24 | 1012.8 |
| 20260507005058 | 83 | 148 | 5.0 | 11.0 | 0.00 | 0.00 | 0.00 | 24 | 1012.7 |
| 20260507004600 | 83 | 148 | 5.0 | 11.0 | 0.00 | 0.00 | 0.00 | 25 | 1012.7 |
| 20260507004058 | 84 | 138 | 5.0 | 11.0 | 0.00 | 0.00 | 0.00 | 24 | 1012.7 |
| 20260507003559 | 84 | 185 | 5.0 | 8.0 | 0.00 | 0.00 | 0.00 | 23 | 1012.7 |
| 20260507003100 | 84 | 236 | 4.0 | 8.0 | 0.00 | 0.00 | 0.00 | 23 | 1012.7 |
| 20260507002558 | 84 | 181 | 6.0 | 9.0 | 0.00 | 0.00 | 0.00 | 23 | 1012.7 |
| 20260507002059 | 84 | 251 | 5.0 | 10.0 | 0.00 | 0.00 | 0.00 | 23 | 1012.7 |
| 20260507001604 | 84 | 180 | 4.0 | 10.0 | 0.00 | 0.00 | 0.00 | 23 | 1012.7 |
| 20260507001058 | 85 | 186 | 3.0 | 10.0 | 0.00 | 0.00 | 0.00 | 23 | 1012.7 |
| 20260507000559 | 85 | 92 | 5.0 | 10.0 | 0.00 | 0.00 | 0.00 | 23 | 1012.7 |
| 20260507000058 | 85 | 152 | 2.0 | 8.0 | 0.00 | 0.00 | 0.00 | 22 | 1012.7 |
| 20260506235559 | 85 | 257 | 4.0 | 8.0 | 0.00 | 0.00 | 0.00 | 23 | 1012.7 |
| 20260506235059 | 85 | 208 | 2.0 | 10.0 | 0.00 | 0.00 | 0.00 | 24 | 1012.7 |
| 20260506234558 | 85 | 229 | 4.0 | 10.0 | 0.00 | 0.00 | 0.00 | 23 | 1012.7 |
| 20260506234058 | 84 | 199 | 4.0 | 9.0 | 0.00 | 0.00 | 0.00 | 24 | 1012.7 |
| 20260506233559 | 85 | 154 | 6.0 | 9.0 | 0.00 | 0.00 | 0.00 | 23 | 1012.8 |
| 20260506233117 | 85 | 178 | 3.0 | 11.0 | 0.00 | 0.00 | 0.00 | 23 | 1012.9 |
| 20260506232558 | 85 | 181 | 3.0 | 11.0 | 0.00 | 0.00 | 0.00 | 23 | 1013.0 |
| 20260506232058 | 85 | 221 | 5.0 | 11.0 | 0.00 | 0.00 | 0.00 | 23 | 1013.0 |
| 20260506231559 | 85 | 179 | 2.0 | 9.0 | 0.00 | 0.00 | 0.00 | 24 | 1013.1 |
| 20260506231100 | 85 | 105 | 4.0 | 9.0 | 0.00 | 0.00 | 0.00 | 23 | 1013.2 |
| 20260506230558 | 85 | 211 | 3.0 | 8.0 | 0.00 | 0.00 | 0.00 | 24 | 1013.1 |
| 20260506230058 | 84 | 183 | 2.0 | 6.0 | 0.00 | 0.00 | 0.00 | 24 | 1013.2 |
| 20260506225558 | 84 | 167 | 2.0 | 6.0 | 0.00 | 0.00 | 0.00 | 23 | 1013.1 |
| 20260506225059 | 85 | 0 | 1.0 | 10.0 | 0.00 | 0.00 | 0.00 | 23 | 1013.2 |
| 20260506224559 | 85 | 273 | 1.0 | 11.0 | 0.00 | 0.00 | 0.00 | 23 | 1013.3 |
| 20260506224059 | 85 | 224 | 6.0 | 11.0 | 0.00 | 0.00 | 0.00 | 24 | 1013.4 |
| 20260506223601 | 84 | 122 | 3.0 | 8.0 | 0.00 | 0.00 | 0.00 | 24 | 1013.4 |
| 20260506223102 | 84 | 146 | 2.0 | 8.0 | 0.00 | 0.00 | 0.00 | 24 | 1013.5 |
| 20260506222559 | 84 | 145 | 4.0 | 9.0 | 0.00 | 0.00 | 0.00 | 25 | 1013.6 |
| 20260506222059 | 84 | 118 | 5.0 | 11.0 | 0.00 | 0.00 | 0.00 | 24 | 1013.6 |
| 20260506221600 | 85 | 210 | 6.0 | 11.0 | 0.00 | 0.00 | 0.00 | 24 | 1013.6 |
| 20260506221059 | 85 | 85 | 7.0 | 11.0 | 0.00 | 0.00 | 0.00 | 23 | 1013.6 |
| 20260506220559 | 84 | 200 | 4.0 | 11.0 | 0.00 | 0.00 | 0.00 | 24 | 1013.6 |
| 20260506220100 | 84 | 71 | 4.0 | 7.0 | 0.00 | 0.00 | 0.00 | 23 | 1013.8 |
| 20260506215559 | 85 | 160 | 3.0 | 7.0 | 0.00 | 0.00 | 0.00 | 24 | 1013.9 |
| 20260506215059 | 84 | 224 | 4.0 | 10.0 | 0.00 | 0.00 | 0.00 | 24 | 1013.9 |
| 20260506214558 | 84 | 124 | 3.0 | 10.0 | 0.00 | 0.00 | 0.00 | 25 | 1014.0 |
| 20260506214100 | 83 | 100 | 3.0 | 8.0 | 0.00 | 0.00 | 0.00 | 24 | 1014.1 |
| 20260506213559 | 84 | 132 | 3.0 | 8.0 | 0.00 | 0.00 | 0.00 | 24 | 1014.3 |
| 20260506213118 | 84 | 242 | 3.0 | 8.0 | 0.00 | 0.00 | 0.00 | 24 | 1014.4 |
| 20260506212559 | 83 | 237 | 4.0 | 8.0 | 0.00 | 0.00 | 0.00 | 25 | 1014.5 |
| 20260506212102 | 83 | 205 | 3.0 | 8.0 | 0.00 | 0.00 | 0.00 | 24 | 1014.6 |
| 20260506211559 | 83 | 162 | 4.0 | 11.0 | 0.00 | 0.00 | 0.00 | 24 | 1014.7 |
| 20260506211059 | 83 | 209 | 5.0 | 11.0 | 0.00 | 0.00 | 0.00 | 25 | 1014.8 |
| 20260506210558 | 83 | 112 | 1.0 | 9.0 | 0.00 | 0.00 | 0.00 | 24 | 1014.7 |
| 20260506210100 | 82 | 0 | 3.0 | 9.0 | 0.00 | 0.00 | 0.00 | 25 | 1014.9 |
| 20260506205558 | 82 | 97 | 4.0 | 9.0 | 0.00 | 0.00 | 0.00 | 26 | 1014.9 |
| 20260506205059 | 83 | 125 | 3.0 | 8.0 | 0.00 | 0.00 | 0.00 | 25 | 1015.1 |
| 20260506204558 | 83 | 112 | 1.0 | 11.0 | 0.00 | 0.00 | 0.00 | 24 | 1015.1 |
| 20260506204058 | 83 | 191 | 5.0 | 11.0 | 0.00 | 0.00 | 0.00 | 25 | 1015.2 |
| 20260506203602 | 83 | 172 | 6.0 | 11.0 | 0.00 | 0.00 | 0.00 | 25 | 1015.1 |
| 20260506203100 | 81 | 252 | 2.0 | 9.0 | 0.00 | 0.00 | 0.00 | 26 | 1015.2 |
| 20260506202558 | 83 | 72 | 3.0 | 6.0 | 0.00 | 0.00 | 0.00 | 24 | 1015.2 |
| 20260506202059 | 84 | 197 | 3.0 | 6.0 | 0.00 | 0.00 | 0.00 | 25 | 1015.3 |
| 20260506201558 | 83 | 279 | 2.0 | 7.0 | 0.00 | 0.00 | 0.00 | 24 | 1015.3 |
| 20260506201058 | 83 | 226 | 2.0 | 7.0 | 0.00 | 0.00 | 0.00 | 24 | 1015.4 |
| 20260506200558 | 83 | 306 | 1.0 | 5.0 | 0.00 | 0.00 | 0.00 | 24 | 1015.4 |
| 20260506200057 | 82 | 278 | 2.0 | 5.0 | 0.00 | 0.00 | 0.00 | 25 | 1015.4 |
| 20260506195559 | 82 | 350 | 1.0 | 5.0 | 0.00 | 0.00 | 0.00 | 24 | 1015.5 |
| 20260506195059 | 82 | 101 | 1.0 | 5.0 | 0.00 | 0.00 | 0.00 | 25 | 1015.5 |
| 20260506194633 | 82 | 340 | 2.0 | 7.0 | 0.00 | 0.00 | 0.00 | 24 | 1015.6 |
| 20260506194101 | 83 | 217 | 2.0 | 11.0 | 0.00 | 0.00 | 0.00 | 24 | 1015.7 |
| 20260506193559 | 82 | 241 | 5.0 | 11.0 | 0.00 | 0.00 | 0.00 | 25 | 1015.7 |
| 20260506193105 | 82 | 247 | 3.0 | 7.0 | 0.00 | 0.00 | 0.00 | 26 | 1015.8 |
| 20260506192559 | 81 | 63 | 1.0 | 8.0 | 0.00 | 0.00 | 0.00 | 25 | 1015.8 |
| 20260506192058 | 81 | 251 | 3.0 | 8.0 | 0.00 | 0.00 | 0.00 | 24 | 1015.8 |
| 20260506191558 | 81 | 283 | 4.0 | 8.0 | 0.00 | 0.00 | 0.00 | 24 | 1015.8 |
| 20260506191100 | 82 | 336 | 3.0 | 8.0 | 0.00 | 0.00 | 0.00 | 24 | 1015.8 |
| 20260506190559 | 82 | 259 | 2.0 | 5.0 | 0.00 | 0.00 | 0.00 | 24 | 1015.9 |
| 20260506185559 | 81 | 0 | 1.0 | 6.0 | 0.00 | 0.00 | 0.00 | 25 | 1015.9 |
| 20260506185059 | 81 | 91 | 0.0 | 6.0 | 0.00 | 0.00 | 0.00 | 25 | 1016.0 |
| 20260506184605 | 80 | 124 | 3.0 | 6.0 | 0.00 | 0.00 | 0.00 | 25 | 1016.1 |
| 20260506184059 | 80 | 259 | 1.0 | 7.0 | 0.00 | 0.00 | 0.00 | 25 | 1016.2 |
| 20260506183559 | 80 | 272 | 2.0 | 8.0 | 0.00 | 0.00 | 0.00 | 27 | 1016.2 |
| 20260506183059 | 80 | 237 | 3.0 | 10.0 | 0.00 | 0.00 | 0.00 | 25 | 1016.3 |
| 20260506182558 | 80 | 165 | 3.0 | 10.0 | 0.00 | 0.00 | 0.00 | 25 | 1016.4 |
| 20260506182058 | 79 | 197 | 3.0 | 8.0 | 0.00 | 0.00 | 0.00 | 26 | 1016.4 |
| 20260506181558 | 79 | 128 | 3.0 | 7.0 | 0.00 | 0.00 | 0.00 | 28 | 1016.4 |
| 20260506181101 | 79 | 184 | 3.0 | 7.0 | 0.00 | 0.00 | 0.00 | 27 | 1016.6 |
| 20260506180601 | 79 | 259 | 3.0 | 6.0 | 0.00 | 0.00 | 0.00 | 27 | 1016.6 |
| 20260506180107 | 79 | 30 | 0.0 | 6.0 | 0.00 | 0.00 | 0.00 | 26 | 1016.6 |
| 20260506175600 | 79 | 174 | 2.0 | 6.0 | 0.00 | 0.00 | 0.00 | 28 | 1016.6 |
| 20260506175103 | 79 | 177 | 3.0 | 6.0 | 0.00 | 0.00 | 0.00 | 28 | 1016.7 |
| 20260506174601 | 79 | 286 | 1.0 | 5.0 | 0.00 | 0.00 | 0.00 | 28 | 1016.7 |
| 20260506174102 | 79 | 187 | 3.0 | 5.0 | 0.00 | 0.00 | 0.00 | 29 | 1016.7 |
| 20260506173601 | 78 | 128 | 0.0 | 3.0 | 0.00 | 0.00 | 0.00 | 30 | 1016.7 |
| 20260506173059 | 78 | 340 | 1.0 | 6.0 | 0.00 | 0.00 | 0.00 | 28 | 1016.7 |
| 20260506172559 | 78 | 266 | 1.0 | 6.0 | 0.00 | 0.00 | 0.00 | 30 | 1016.8 |
| 20260506172100 | 78 | 273 | 1.0 | 5.0 | 0.00 | 0.00 | 0.00 | 30 | 1016.7 |
| 20260506171603 | 77 | 207 | 2.0 | 5.0 | 0.00 | 0.00 | 0.00 | 30 | 1016.7 |
| 20260506171100 | 76 | 188 | 1.0 | 5.0 | 0.00 | 0.00 | 0.00 | 32 | 1016.7 |
| 20260506170559 | 75 | 324 | 1.0 | 3.0 | 0.00 | 0.00 | 0.00 | 31 | 1016.6 |
| 20260506170113 | 75 | 257 | 1.0 | 3.0 | 0.00 | 0.00 | 0.00 | 32 | 1016.7 |
| 20260506165603 | 75 | 336 | 1.0 | 3.0 | 0.00 | 0.00 | 0.00 | 32 | 1016.6 |
| 20260506165101 | 75 | 325 | 0.0 | 3.0 | 0.00 | 0.00 | 0.00 | 32 | 1016.7 |
| 20260506164607 | 75 | 314 | 0.0 | 4.0 | 0.00 | 0.00 | 0.00 | 32 | 1016.7 |
| 20260506164101 | 75 | 87 | 1.0 | 4.0 | 0.00 | 0.00 | 0.00 | 31 | 1016.6 |
| 20260506163602 | 75 | 250 | 0.0 | 6.0 | 0.00 | 0.00 | 0.00 | 33 | 1016.6 |
| 20260506163124 | 74 | 304 | 1.0 | 6.0 | 0.00 | 0.00 | 0.00 | 33 | 1016.7 |
| 20260506162600 | 73 | 289 | 0.0 | 3.0 | 0.00 | 0.00 | 0.00 | 34 | 1016.6 |
| 20260506162100 | 73 | 51 | 0.0 | 3.0 | 0.00 | 0.00 | 0.00 | 33 | 1016.6 |
| 20260506161614 | 72 | 22 | 1.0 | 4.0 | 0.00 | 0.00 | 0.00 | 33 | 1016.6 |
| 20260506161100 | 73 | 302 | 1.0 | 4.0 | 0.00 | 0.00 | 0.00 | 33 | 1016.6 |
| 20260506160600 | 72 | 173 | 1.0 | 4.0 | 0.00 | 0.00 | 0.00 | 34 | 1016.5 |
| 20260506160059 | 73 | 107 | 1.0 | 2.0 | 0.00 | 0.00 | 0.00 | 33 | 1016.6 |
| 20260506155601 | 74 | 132 | 0.0 | 2.0 | 0.00 | 0.00 | 0.00 | 33 | 1016.6 |
| 20260506155101 | 73 | 0 | 0.0 | 2.0 | 0.00 | 0.00 | 0.00 | 33 | 1016.6 |
| 20260506154624 | 73 | 77 | 0.0 | 2.0 | 0.00 | 0.00 | 0.00 | 33 | 1016.5 |
| 20260506154104 | 72 | 0 | 0.0 | 2.0 | 0.00 | 0.00 | 0.00 | 34 | 1016.5 |
| 20260506153601 | 71 | 71 | 0.0 | 3.0 | 0.00 | 0.00 | 0.00 | 35 | 1016.6 |
| 20260506153107 | 70 | 0 | 1.0 | 4.0 | 0.00 | 0.00 | 0.00 | 36 | 1016.6 |
| 20260506152558 | 70 | 70 | 2.0 | 4.0 | 0.00 | 0.00 | 0.00 | 36 | 1016.6 |
| 20260506152100 | 70 | 65 | 1.0 | 3.0 | 0.00 | 0.00 | 0.00 | 36 | 1016.8 |
| 20260506151600 | 70 | 79 | 0.0 | 2.0 | 0.00 | 0.00 | 0.00 | 36 | 1016.7 |
| 20260506151058 | 70 | 0 | 0.0 | 2.0 | 0.00 | 0.00 | 0.00 | 37 | 1016.6 |
| 20260506150558 | 69 | 0 | 0.0 | 1.0 | 0.00 | 0.00 | 0.00 | 38 | 1016.6 |
| 20260506145558 | 69 | 0 | 0.0 | 1.0 | 0.00 | 0.00 | 0.00 | 37 | 1016.7 |
| 20260506145100 | 68 | 0 | 0.0 | 1.0 | 0.00 | 0.00 | 0.00 | 37 | 1016.7 |
| 20260506144557 | 69 | 1 | 0.0 | 0.0 | 0.00 | 0.00 | 0.00 | 37 | 1016.7 |
| 20260506144101 | 68 | 0 | 0.0 | 1.0 | 0.00 | 0.00 | 0.00 | 38 | 1016.6 |
| 20260506143559 | 66 | 0 | 0.0 | 1.0 | 0.00 | 0.00 | 0.00 | 40 | 1016.7 |
| 20260506143108 | 65 | 0 | 0.0 | 2.0 | 0.00 | 0.00 | 0.00 | 41 | 1016.7 |
| 20260506142602 | 64 | 337 | 0.0 | 2.0 | 0.00 | 0.00 | 0.00 | 42 | 1016.7 |
| 20260506142058 | 63 | 6 | 0.0 | 2.0 | 0.00 | 0.00 | 0.00 | 42 | 1016.7 |
| 20260506141558 | 63 | 323 | 0.0 | 2.0 | 0.00 | 0.00 | 0.00 | 42 | 1016.6 |
| 20260506141058 | 62 | 0 | 0.0 | 2.0 | 0.00 | 0.00 | 0.00 | 44 | 1016.5 |
| 20260506140558 | 61 | 317 | 0.0 | 2.0 | 0.00 | 0.00 | 0.00 | 44 | 1016.5 |
| 20260506135559 | 61 | 0 | 0.0 | 1.0 | 0.00 | 0.00 | 0.00 | 44 | 1016.4 |
| 20260506135058 | 61 | 0 | 0.0 | 1.0 | 0.00 | 0.00 | 0.00 | 45 | 1016.3 |
| 20260506134557 | 61 | 0 | 0.0 | 0.0 | 0.00 | 0.00 | 0.00 | 44 | 1016.1 |
| 20260506134058 | 62 | 0 | 0.0 | 0.0 | 0.00 | 0.00 | 0.00 | 44 | 1016.1 |
| 20260506133558 | 60 | 0 | 0.0 | 0.0 | 0.00 | 0.00 | 0.00 | 46 | 1016.1 |
| 20260506133102 | 59 | 0 | 0.0 | 0.0 | 0.00 | 0.00 | 0.00 | 47 | 1016.0 |